Regional Weather Roundup
Issued by NWS

Home | Current Version | Previous Version | Graphics & Text | Print | Product List | Glossary Off
Versions: 1 2 3 4 5 6 7 8 9 10 11 12 13 14 15 16 17 18 19 20 21 22 23 24 25 26 27 28 29 30 31 32 33 34 35 36 37 38 39 40 41 42 43 44 45 46 47 48 49 50

000
ASUS43 KMKX 250020
RWRWI

WISCONSIN REGIONAL WEATHER ROUNDUP
NATIONAL WEATHER SERVICE MILWAUKEE/SULLIVAN WI
700 PM CDT THU JUL 24 2014

NOTE: "FAIR" INDICATES FEW OR NO CLOUDS BELOW 12,000 FEET WITH NO
SIGNIFICANT WEATHER AND/OR OBSTRUCTIONS TO VISIBILITY.

WIZ001-002-006>008-014>016-023>028-250100-
NORTHWEST WISCONSIN

CITY           SKY/WX    TMP DP  RH WIND       PRES   REMARKS
SUPERIOR ARPT  CLOUDY    67  56  68 CALM      29.93S
6HR MIN TEMP:  64; 6HR MAX TEMP:  75;

ASHLAND        PTSUNNY   69  62  78 CALM      29.96F
6HR MIN TEMP:  69; 6HR MAX TEMP:  78;

HAYWARD        CLOUDY    72  58  61 S5        29.96F
6HR MIN TEMP:  72; 6HR MAX TEMP:  78;

SIREN          PTSUNNY   76  56  50 S10       29.95R
6HR MIN TEMP:  76; 6HR MAX TEMP:  80;

RICE LAKE      CLOUDY    74  56  52 SE9       29.97S
6HR MIN TEMP:  74; 6HR MAX TEMP:  78;

LADYSMITH      CLOUDY    73  56  56 SE5       30.00F
6HR MIN TEMP:  73; 6HR MAX TEMP:  77;

EAU CLAIRE     CLOUDY    76  57  51 SE14      29.94F
6HR MIN TEMP:  76; 6HR MAX TEMP:  81;

MENOMONIE      CLOUDY    76  58  53 SE7       29.95R
6HR MIN TEMP:  75; 6HR MAX TEMP:  81;

NEW RICHMOND   CLOUDY    76  58  53 S10       29.95R
6HR MIN TEMP:  74; 6HR MAX TEMP:  79;

OSCEOLA        CLOUDY    77  60  54 S8        29.96R
6HR MIN TEMP:  75; 6HR MAX TEMP:  80;

$$

WIZ003>005-009-010-017-018-250100-
NORTH CENTRAL WISCONSIN

CITY           SKY/WX    TMP DP  RH WIND       PRES   REMARKS
WOODRUFF       PTSUNNY   73  52  47 SW5       30.01S
6HR MIN TEMP:  73; 6HR MAX TEMP:  80;

RHINELANDER    PTSUNNY   70  54  56 S3        30.02F
6HR MIN TEMP:  70; 6HR MAX TEMP:  76;

EAGLE RIVER    MOSUNNY   70  51  51 CALM      30.01F
6HR MIN TEMP:  69; 6HR MAX TEMP:  74;

LAND O LAKES   PTSUNNY   73  49  41 W5        30.02S
6HR MIN TEMP:  71; 6HR MAX TEMP:  76;

PHILLIPS       PTSUNNY   70  55  59 S5        30.00S
6HR MIN TEMP:  71; 6HR MAX TEMP:  75;

TOMAHAWK       PTSUNNY   68  56  65 CALM      30.02S
6HR MIN TEMP:  68; 6HR MAX TEMP:  75;

MEDFORD        PTSUNNY   71  55  56 S5        30.01F
6HR MIN TEMP:  70; 6HR MAX TEMP:  74;

MERRILL        PTSUNNY   71  54  54 S3        30.01F
6HR MIN TEMP:  71; 6HR MAX TEMP:  76;

$$

WIZ029-030-035-036-043>047-250100-
CENTRAL WISCONSIN

CITY           SKY/WX    TMP DP  RH WIND       PRES   REMARKS
WAUSAU         PTSUNNY   73  51  46 S6        30.00F
6HR MIN TEMP:  72; 6HR MAX TEMP:  78;

MOSINEE        MOSUNNY   72  55  56 S3        30.03F
MARSHFIELD     PTSUNNY   73  57  57 SW5       30.01F
6HR MIN TEMP:  73; 6HR MAX TEMP:  78;

STEVENS POINT  PTSUNNY   73  51  46 W3        30.02F
6HR MIN TEMP:  70; 6HR MAX TEMP:  76;

WAUPACA        PTSUNNY   76  53  44 SE6       30.01F
6HR MIN TEMP:  74; 6HR MAX TEMP:  82;

WAUTOMA        PTSUNNY   76  54  46 S6        30.03F
6HR MIN TEMP:  75; 6HR MAX TEMP:  81;

WISC RAPIDS    PTSUNNY   75  53  46 SW7       30.03F
6HR MIN TEMP:  75; 6HR MAX TEMP:  80;

CAMP DOUGLAS   CLOUDY    73  59  60 S5        30.02F
$$

WIZ011>013-019>022-031-037>040-048>050-250100-
NORTHEAST WISCONSIN

CITY           SKY/WX    TMP DP  RH WIND       PRES   REMARKS
ANTIGO         MOSUNNY   68  54  61 SW3       30.03F
6HR MIN TEMP:  68; 6HR MAX TEMP:  74;

STURGEON BAY   SUNNY     64  45  48 S13       30.05S
6HR MIN TEMP:  66; 6HR MAX TEMP:  72;

GREEN BAY      SUNNY     74  52  46 S5        30.03F
6HR MIN TEMP:  73; 6HR MAX TEMP:  78;

MANITOWOC      SUNNY     66  46  48 S12       30.07F
6HR MIN TEMP:  66; 6HR MAX TEMP:  69;

APPLETON       PTSUNNY   72  52  49 S8        30.05F
CLINTONVILLE   MOSUNNY   72  54  53 S5        30.01F
OSHKOSH        PTSUNNY   73  56  54 S7        30.04S
6HR MIN TEMP:  71; 6HR MAX TEMP:  76;

$$

WIZ032>034-041-042-053>061-250100-
SOUTHWEST WISCONSIN

CITY           SKY/WX    TMP DP  RH WIND       PRES   REMARKS
LA CROSSE      NOT AVBL
SPARTA         CLOUDY    74  56  52 S5        30.02F
6HR MIN TEMP:  74; 6HR MAX TEMP:  79;

VIROQUA        FAIR      73  58  61 S6        30.03F
6HR MIN TEMP:  73; 6HR MAX TEMP:  78;

BOSCOBEL       CLOUDY    76  59  55 S5        30.05F
6HR MIN TEMP:  76; 6HR MAX TEMP:  83;

PRAIRIE DU CHI CLOUDY    75  57  53 S5        30.00F
PLATTEVILLE    FAIR      73  59  62 S5        30.08F
6HR MIN TEMP:  73; 6HR MAX TEMP:  77;

$$

WIZ056-057-062-063-064-067-068-250100-
SOUTH CENTRAL WISCONSIN

CITY           SKY/WX    TMP DP  RH WIND       PRES   REMARKS
BARABOO/DELLS  PTSUNNY   73  54  49 SW3       30.05F
6HR MIN TEMP:  73; 6HR MAX TEMP:  80;

LONE ROCK      CLOUDY    78  60  53 SW5       30.05F
6HR MIN TEMP:  78; 6HR MAX TEMP:  83;

WATERTOWN      MOSUNNY   72  55  55 S5        30.06S
6HR MIN TEMP:  72; 6HR MAX TEMP:  77;

MADISON        PTSUNNY   75  55  49 CALM      30.06F
6HR MIN TEMP:  74; 6HR MAX TEMP:  79;

MIDDLETON      FAIR      75  54  47 SW5       30.07S
6HR MIN TEMP:  74; 6HR MAX TEMP:  80;

MONROE         PTSUNNY   73  55  53 SW7       30.08R
JANESVILLE     NOT AVBL
$$

WIZ051-052-058>065-066-070>072-250100-
SOUTHEAST WISCONSIN

CITY           SKY/WX    TMP DP  RH WIND       PRES   REMARKS
MILWAUKEE      MOSUNNY   66  44  45 SE9       30.09S
6HR MIN TEMP:  66; 6HR MAX TEMP:  71;

WAUKESHA       PTSUNNY   72  46  40 SE7       30.09S
MILWAUKEE/TIMM SUNNY     70  36  28 E8        30.09S
RACINE         SUNNY     67  45  45 SE7       30.11S
6HR MIN TEMP:  67; 6HR MAX TEMP:  70;

BURLINGTON     MOSUNNY   67  49  51 SE8       30.08S
6HR MIN TEMP:  67; 6HR MAX TEMP:  73;

KENOSHA        SUNNY     68  43  40 SE6       30.09F
6HR MIN TEMP:  67; 6HR MAX TEMP:  72;

FOND DU LAC    PTSUNNY   73  54  51 S5        30.06S
6HR MIN TEMP:  72; 6HR MAX TEMP:  77;

SHEBOYGAN      SUNNY     66  44  45 S8        30.08S
6HR MIN TEMP:  66; 6HR MAX TEMP:  72;

WEST BEND      SUNNY     64  41  42 SE7       30.08R
JUNEAU         PTSUNNY   72  50  45 S5        30.07S
6HR MIN TEMP:  71; 6HR MAX TEMP:  75;

$$

LSZ147-162-250100-
LAKE SUPERIOR

STATION/POSITION TIME  TEMP    WIND        PRES    WAVE
                       AIR SEA DIR/SP/G            HT/PER
                 (UTC) (F)     (DEG/KT/KT) (MB)    (FT/S)
$$

LMZ867-665-643>646-250100-
LAKE MICHIGAN

STATION/POSITION TIME  TEMP    WIND        PRES    WAVE
                       AIR SEA DIR/SP/G            HT/PER
                 (UTC) (F)     (DEG/KT/KT) (MB)    (FT/S)
$$

TC  - TEMPERATURE IN CELSIUS
VSB - VISIBILITY IN STATUTE MILES
WCI - WIND CHILL INDEX
HX  - HEAT INDEX



USA.gov is the U.S. government's official web portal to all federal, state and local government web resources and services.